Home > Weather > New Orleans > Past weeks

Flag for USA Weather for the Past 2 Weeks in New Orleans, Louisiana, USA

Now
77 °F

Passing clouds.


Feels Like: 79 °F
Forecast: 72 / 85 °F
Wind: 16 mph from Southeast

Location: Lakefront Airport

Current Time: Apr 29, 2016 at 11:56:08 AM

Latest Report: Apr 29, 2016 at 10:53 AM


Visibility: 10 mi

Pressure: 29.93 "Hg

Humidity: 82%

Dew Point: 71 °F

Location of New OrleansLocation

Historic Weather in New Orleans — Graph

°F

New Orleans Temperature Yesterday

Maximum temperature yesterday: 76 °F (at 10:53 AM)
Minimum temperature yesterday: 66 °F (at 11:53 AM)
Average temperature yesterday: 71 °F

High & Low Weather Summary for the Past Weeks

 TemperatureHumidityPressure
High81 °F (Apr 25, 1:53 PM)100% (Apr 14, 10:53 AM)30.21 "Hg (Apr 14, 10:53 AM)
Low63 °F (Apr 16, 10:53 AM)39% (Apr 24, 3:53 PM)29.68 "Hg (Apr 27, 3:53 PM)
Average69 °F86%29.97 "Hg
* Reported Apr 14 10:53 AM — Apr 29 10:53 AM, New Orleans, Weather by CustomWeather, © 2016

Note: Actual official high and low records may vary slightly from our data, if they occured in-between our weather recording intervals... More about our weather records

Advertising

New Orleans Weather History for the Previous 24 Hours

Scroll right to see more
 ConditionsComfort  
Time TempWeatherWind HumidityBarometerVisibility
10:53 AM
Fri, Apr 29
77 °FPassing clouds.16 mph82%29.93 "Hg10 mi
9:53 AM75 °FBroken clouds.14 mph94%29.93 "Hg9 mi
8:53 AM71 °FMostly cloudy.12 mph100%29.93 "Hg8 mi
8:00 AM70 °FMostly cloudy.10 mph100%29.95 "Hg7 mi
6:53 AM70 °FFog.8 mph100%29.91 "Hg5 mi
5:53 AM70 °FLow clouds.9 mphN/A29.90 "Hg5 mi
4:53 AM68 °FClear.7 mphN/A29.89 "Hg5 mi
3:53 AM68 °FClear.8 mph100%29.89 "Hg7 mi
2:53 AM68 °FClear.3 mph100%29.90 "Hg8 mi
1:53 AM68 °FClear.6 mph100%29.90 "Hg9 mi
12:53 AM68 °FPassing clouds.6 mph100%29.90 "Hg10 mi
11:53 PM
Thu, Apr 28
69 °FPassing clouds.9 mph100%29.92 "Hg10 mi
10:53 PM70 °FPassing clouds.7 mph97%29.93 "Hg10 mi
9:53 PM70 °FPassing clouds.6 mph100%29.94 "Hg10 mi
8:53 PM71 °FOvercast.12 mph96%29.93 "Hg10 mi
7:53 PM71 °FBroken clouds.14 mph100%29.91 "Hg10 mi
6:53 PM72 °FCloudy.12 mph100%29.92 "Hg8 mi
5:53 PM73 °FMostly cloudy.12 mph100%29.90 "Hg8 mi
4:53 PM72 °FSunny.8 mph100%29.89 "Hg10 mi
4:02 PM71 °FSunny.8 mph100%29.92 "Hg10 mi
3:53 PM71 °FThunderstorms. Sunny.6 mph100%29.91 "Hg10 mi
2:53 PM70 °FBroken clouds.9 mph100%29.92 "Hg10 mi
1:53 PM69 °FStrong thunderstorms. Fog.14 mph100%29.93 "Hg6 mi
1:00 PM66 °FStrong thunderstorms. Mostly cloudy.15 mph100%29.95 "Hg10 mi
12:53 PM67 °FStrong thunderstorms. Fog.18 mph100%29.93 "Hg1 mi
11:53 AM66 °FStrong thunderstorms. Fog.25 mph100%29.93 "Hg1 mi
Weather by CustomWeather, © 2016

See weather overviewHow to use our weather pages